Biloxi, MS

2:10 AM CDT on September 27, 2016 (GMT -0500)
Keesler Air Force Base

Weather History for KBIX - January, 2014

Change the Weather History Date:

Friday, January 24, 2014

  Actual Average Record
Temperature  
Mean Temperature 33 °F -  
Max Temperature 37 °F 61 °F 73 °F (1950)
Min Temperature 29 °F 44 °F 10 °F (1963)
Degree Days  
Heating Degree Days 32    
Moisture  
Dew Point 17 °F    
Average Humidity 56    
Maximum Humidity 83    
Minimum Humidity 36    
Precipitation  
Precipitation 0.01 in - - ()
Sea Level Pressure  
Sea Level Pressure 30.51 in    
Wind  
Wind Speed 12 mph (NNE)    
Max Wind Speed 23 mph    
Max Gust Speed 31 mph    
Visibility 9 miles    
Events Rain    
Averages and records for this station are not official NWS values.
T = Trace of Precipitation, MM = Missing Value Source: NWS Daily Summary

Daily Weather History Graph

Daily Weather History Graph

Search for Another Location

Airport or City:

Trip Planner

Search our weather history database for the weather conditions in past years. The results will help you decide how hot, cold, wet, or windy it might be!

Date:

Astronomy

Jan. 24, 2014 Rise Set
Actual Time 6:50 AM CST 5:25 PM CST
Civil Twilight 6:25 AM CST 5:50 PM CST
Nautical Twilight 5:56 AM CST 6:19 PM CST
Astronomical Twilight 5:27 AM CST 6:48 PM CST
Moon 12:23 AM CST (1/24) 11:39 AM CST (1/24)
Length of Visible Light 11h 25m
Length of Day
10h 34m
Last Quarter, 44% of the Moon is Illuminated
Jan 24
Last Quarter
Jan 30
New
Feb 6
First Quarter
Feb 14
Full
Feb 22
Last Quarter

Hourly Weather History & Observations

Time (CST) Temp. Windchill Dew Point Humidity Pressure Visibility Wind Dir Wind Speed Gust Speed Precip Events Conditions
12:58 AM 37.6 °F 28.8 °F 20.3 °F 50% 30.58 in 10.0 mi North 15.0 mph 23.0 mph N/A   Overcast
1:58 AM 37.0 °F 25.9 °F 17.6 °F 45% 30.57 in 10.0 mi NE 23.0 mph 31.1 mph N/A   Overcast
2:58 AM 34.2 °F 22.6 °F 20.7 °F 58% 30.57 in 10.0 mi NNE 20.7 mph 26.5 mph N/A   Overcast
3:58 AM 34.0 °F 25.5 °F 17.8 °F 52% 30.57 in 10.0 mi NNE 11.5 mph 18.4 mph N/A   Mostly Cloudy
4:58 AM 33.8 °F 24.8 °F 14.4 °F 45% 30.57 in 10.0 mi NNE 12.7 mph 20.7 mph N/A   Overcast
5:58 AM 32.5 °F 22.3 °F 10.0 °F 39% 30.57 in 10.0 mi NNE 15.0 mph 19.6 mph N/A   Overcast
6:58 AM 32.0 °F 22.5 °F 7.9 °F 36% 30.58 in 10.0 mi NNE 12.7 mph - N/A   Overcast
7:35 AM 32.0 °F 21.6 °F 10.4 °F 41% 30.58 in 10.0 mi NE 15.0 mph 19.6 mph N/A   Light Ice Pellets
7:58 AM 32.0 °F 22.5 °F 10.4 °F 41% 30.60 in 10.0 mi NNE 12.7 mph - N/A   Light Ice Pellets
8:25 AM 32.0 °F 22.1 °F 10.4 °F 41% 30.59 in 10.0 mi NE 13.8 mph - N/A   Overcast
8:58 AM 32.0 °F 22.1 °F 9.7 °F 39% 30.60 in 10.0 mi NE 13.8 mph 19.6 mph N/A   Mostly Cloudy
9:58 AM 32.7 °F 23.9 °F 11.8 °F 42% 30.59 in 10.0 mi NE 11.5 mph - N/A   Overcast
10:58 AM 33.3 °F 26.4 °F 10.2 °F 38% 30.59 in 10.0 mi NNE 8.1 mph - N/A   Overcast
11:05 AM 32.0 °F 24.2 °F 12.2 °F 44% 30.58 in 10.0 mi NNE 9.2 mph - N/A   Light Ice Pellets
11:23 AM 32.0 °F 25.6 °F 14.0 °F 48% 30.58 in 10.0 mi NNE 6.9 mph - N/A   Overcast
11:58 AM 33.1 °F 27.7 °F 11.8 °F 41% 30.56 in 10.0 mi NNE 5.8 mph - 0.00 in   Overcast
12:58 PM 33.8 °F 25.3 °F 11.7 °F 40% 30.51 in 10.0 mi NNE 11.5 mph - N/A   Overcast
1:35 PM 33.8 °F 24.8 °F 15.8 °F 48% 30.49 in 10.0 mi NNE 12.7 mph - N/A Rain Light Rain
1:58 PM 32.9 °F 25.9 °F 17.1 °F 52% 30.49 in 10.0 mi North 8.1 mph - 0.00 in   Overcast
2:13 PM 32.0 °F 23.6 °F 17.6 °F 55% 30.48 in 10.0 mi North 10.4 mph - N/A   Overcast
2:19 PM 32.0 °F 24.2 °F 19.4 °F 60% 30.47 in 10.0 mi North 9.2 mph - N/A Rain Light Rain
2:55 PM 31.8 °F 24.6 °F 19.4 °F 60% 30.48 in 10.0 mi North 8.1 mph - 0.00 in Rain Light Freezing Rain
3:55 PM 30.9 °F 23.5 °F 20.8 °F 66% 30.49 in 7.0 mi North 8.1 mph - 0.00 in Rain Light Freezing Rain
4:55 PM 30.0 °F 24.1 °F 21.2 °F 70% 30.48 in 7.0 mi NNE 5.8 mph - 0.00 in Rain Light Freezing Rain
5:55 PM 29.7 °F 22.0 °F 21.6 °F 72% 30.47 in 7.0 mi NNE 8.1 mph - 0.00 in Rain Light Freezing Rain
6:55 PM 29.5 °F 22.5 °F 22.3 °F 75% 30.45 in 7.0 mi NE 6.9 mph - 0.00 in Rain Light Freezing Rain
7:55 PM 29.5 °F 24.5 °F 22.6 °F 76% 30.45 in 7.0 mi NNE 4.6 mph - 0.00 in Rain Light Freezing Rain
8:55 PM 29.5 °F - 23.0 °F 77% 30.43 in 7.0 mi NNE 2.3 mph - 0.00 in Rain Light Freezing Rain
9:55 PM 29.5 °F - 24.4 °F 81% 30.40 in 7.0 mi NNE 1.2 mph - 0.01 in Rain Light Freezing Rain
10:24 PM 30.2 °F - 24.8 °F 80% 30.39 in 10.0 mi Calm Calm - N/A   Overcast
10:58 PM 30.6 °F - 25.7 °F 82% 30.37 in 10.0 mi Calm Calm - 0.00 in   Overcast
11:58 PM 32.0 °F - 27.5 °F 83% 30.34 in 10.0 mi North 2.3 mph - N/A   Overcast